START_TIME,STEP,MOV.,EG07,t_acc.,EG08,t_acc.,EG09,t_acc.,EB05,t_acc.,EBP05,t_acc.
1979-03-02 18:00:12.310 ,0,0,0.,1.2,0.,1.2,0.,1.2,,0.0,,0.0
1979-03-02 18:00:13.510 ,0,0,0.,1.2,0.,1.2,0.,1.2,,0.0,,0.0
1979-03-02 18:00:14.710 ,0,0,0.,1.2,0.,1.2,0.,1.2,,0.0,,0.0
1979-03-02 18:00:15.910 ,0,0,0.,1.2,0.,1.2,0.,1.2,,0.0,,0.0
1979-03-02 18:00:17.110 ,0,0,0.,1.2,0.,1.2,0.,1.2,,0.0,,0.0
1979-03-02 18:00:18.310 ,0,0,0.,1.2,0.,1.2,0.,1.2,,0.0,,0.0
1979-03-02 18:00:19.510 ,0,0,0.,1.2,0.,1.2,0.,1.2,,0.0,,0.0
1979-03-02 18:00:20.710 ,0,0,0.,1.2,0.,1.2,0.,1.2,,0.0,,0.0
1979-03-02 18:00:21.910 ,0,0,0.,1.2,0.,1.2,0.,1.2,,0.0,,0.0
1979-03-02 18:00:23.110 ,0,0,0.,1.2,0.,1.2,0.,1.2,,0.0,,0.0
1979-03-02 18:00:24.310 ,0,0,0.,1.2,0.,1.2,0.,1.2,,0.0,,0.0
1979-03-02 18:00:25.510 ,0,0,0.,1.2,0.,1.2,0.,1.2,,0.0,,0.0
1979-03-02 18:00:26.710 ,0,0,0.,1.2,0.,1.2,0.,1.2,,0.0,,0.0
1979-03-02 18:00:27.910 ,0,0,0.,1.2,0.,1.2,0.,1.2,,0.0,,0.0
1979-03-02 18:00:29.110 ,0,0,0.,1.2,0.,1.2,0.,1.2,,0.0,,0.0
1979-03-02 18:00:30.310 ,0,0,0.,1.2,0.,1.2,0.,1.2,,0.0,,0.0
1979-03-02 18:00:31.510 ,0,0,0.,1.2,0.,1.2,0.,1.2,,0.0,,0.0
1979-03-02 18:00:32.710 ,0,0,0.,1.2,0.,1.2,0.,1.2,,0.0,,0.0
1979-03-02 18:00:33.910 ,0,0,0.,1.2,0.,1.2,0.,1.2,,0.0,,0.0
1979-03-02 18:00:35.110 ,0,0,0.,1.2,0.,1.2,0.,1.2,,0.0,,0.0
1979-03-02 18:00:36.310 ,0,0,0.,1.2,0.,1.2,0.,1.2,,0.0,,0.0
1979-03-02 18:00:37.510 ,0,0,0.,1.2,0.,1.2,0.,1.2,,0.0,,0.0
1979-03-02 18:00:38.710 ,0,0,0.,1.2,0.,1.2,0.,1.2,,0.0,,0.0
1979-03-02 18:00:39.910 ,0,0,0.,1.2,0.,1.2,0.,1.2,,0.0,,0.0
1979-03-02 18:00:41.110 ,0,0,0.,1.2,0.,1.2,0.,1.2,,0.0,,0.0
1979-03-02 18:00:42.310 ,0,0,0.,1.2,0.,1.2,0.,1.2,,0.0,,0.0
1979-03-02 18:00:43.510 ,0,0,0.,1.2,0.,1.2,0.,1.2,,0.0,,0.0
1979-03-02 18:00:44.710 ,0,0,0.,1.2,0.,1.2,0.,1.2,,0.0,,0.0
1979-03-02 18:00:45.910 ,0,0,0.,1.2,0.,1.2,0.,1.2,,0.0,,0.0
1979-03-02 18:00:47.110 ,0,0,0.,1.2,0.,1.2,0.,1.2,,0.0,,0.0
1979-03-02 18:00:48.310 ,0,0,0.,1.2,0.,1.2,0.,1.2,,0.0,,0.0
1979-03-02 18:00:49.510 ,0,0,0.,1.2,0.,1.2,0.,1.2,,0.0,,0.0
1979-03-02 18:00:50.710 ,0,0,0.,1.2,0.,1.2,0.,1.2,,0.0,,0.0
1979-03-02 18:00:51.910 ,0,0,0.,1.2,0.,1.2,0.,1.2,,0.0,,0.0
1979-03-02 18:00:53.110 ,0,0,0.,1.2,0.,1.2,0.,1.2,,0.0,,0.0
1979-03-02 18:00:54.310 ,0,0,0.,1.2,0.,1.2,0.,1.2,,0.0,,0.0
1979-03-02 18:00:55.510 ,0,0,0.,1.2,0.,1.2,0.,1.2,,0.0,,0.0
1979-03-02 18:00:56.710 ,0,0,0.,1.2,0.,1.2,0.,1.2,,0.0,,0.0
1979-03-02 18:00:57.910 ,0,0,0.,1.2,0.,1.2,0.,1.2,,0.0,,0.0
1979-03-02 18:00:59.110 ,0,0,0.,1.2,0.,1.2,0.,1.2,,0.0,,0.0
1979-03-02 18:01:00.310 ,1,0,0.,1.2,0.,1.2,0.,1.2,,0.0,,0.0
1979-03-02 18:01:01.510 ,1,0,0.,1.2,0.,1.2,0.,1.2,,0.0,,0.0
1979-03-02 18:01:02.710 ,1,0,0.,1.2,0.,1.2,0.,1.2,,0.0,,0.0
1979-03-02 18:01:03.910 ,1,0,0.,1.2,0.,1.2,0.,1.2,,0.0,,0.0
1979-03-02 18:01:05.110 ,1,0,0.,1.2,0.,1.2,0.,1.2,,0.0,,0.0
1979-03-02 18:01:06.310 ,1,0,0.,1.2,0.,1.2,0.,1.2,,0.0,,0.0
1979-03-02 18:01:07.510 ,1,0,0.,1.2,0.,1.2,0.,1.2,,0.0,,0.0
1979-03-02 18:01:08.710 ,1,0,0.,1.2,0.,1.2,0.,1.2,,0.0,,0.0
1979-03-02 18:01:09.910 ,1,0,0.,1.2,0.,1.2,0.,1.2,,0.0,,0.0
1979-03-02 18:01:11.110 ,1,0,0.,1.2,0.,1.2,0.,1.2,,0.0,,0.0
1979-03-02 18:01:12.310 ,1,0,0.,1.2,0.,1.2,0.,1.2,,0.0,,0.0
1979-03-02 18:01:13.510 ,1,0,0.,1.2,0.,1.2,0.,1.2,,0.0,,0.0
1979-03-02 18:01:14.710 ,1,0,0.,1.2,0.,1.2,0.,1.2,,0.0,,0.0
1979-03-02 18:01:15.910 ,1,0,0.,1.2,0.,1.2,0.,1.2,,0.0,,0.0
1979-03-02 18:01:17.110 ,1,0,0.,1.2,0.,1.2,0.,1.2,,0.0,,0.0
1979-03-02 18:01:18.310 ,1,0,0.,1.2,0.,1.2,0.,1.2,,0.0,,0.0
1979-03-02 18:01:19.510 ,1,0,0.,1.2,0.,1.2,0.,1.2,,0.0,,0.0
1979-03-02 18:01:20.710 ,1,0,0.,1.2,0.,1.2,0.,1.2,,0.0,,0.0
1979-03-02 18:01:21.910 ,1,0,0.,1.2,0.,1.2,0.,1.2,,0.0,,0.0
1979-03-02 18:01:23.110 ,1,0,0.,1.2,0.,1.2,0.,1.2,,0.0,,0.0
1979-03-02 18:01:24.310 ,2,0,0.,1.2,0.,1.2,0.,1.2,,0.0,,0.0
1979-03-02 18:01:25.510 ,2,0,0.,1.2,0.,1.2,0.,1.2,,0.0,,0.0
1979-03-02 18:01:26.710 ,2,0,0.,1.2,0.,1.2,0.,1.2,,0.0,,0.0
1979-03-02 18:01:27.910 ,2,0,0.,1.2,0.,1.2,0.,1.2,,0.0,,0.0
1979-03-02 18:01:29.110 ,2,0,0.,1.2,0.,1.2,0.,1.2,,0.0,,0.0
1979-03-02 18:01:30.310 ,2,0,0.,1.2,0.,1.2,0.,1.2,,0.0,,0.0
1979-03-02 18:01:31.510 ,2,0,0.,1.2,0.,1.2,0.,1.2,,0.0,,0.0
1979-03-02 18:01:32.710 ,2,0,0.,1.2,0.,1.2,0.,1.2,,0.0,,0.0
1979-03-02 18:01:33.910 ,2,0,0.,1.2,0.,1.2,0.,1.2,,0.0,,0.0
1979-03-02 18:01:35.110 ,2,0,0.,1.2,0.,1.2,0.,1.2,,0.0,,0.0
1979-03-02 18:01:36.310 ,2,0,0.,1.2,0.,1.2,0.,1.2,,0.0,,0.0
1979-03-02 18:01:37.510 ,2,0,0.,1.2,0.,1.2,0.,1.2,,0.0,,0.0
1979-03-02 18:01:38.710 ,2,0,0.,1.2,0.,1.2,0.,1.2,,0.0,,0.0
1979-03-02 18:01:39.910 ,2,0,0.,1.2,0.,1.2,0.,1.2,,0.0,,0.0
1979-03-02 18:01:41.110 ,2,0,0.,1.2,0.,1.2,0.,1.2,,0.0,,0.0
1979-03-02 18:01:42.310 ,2,0,0.,1.2,0.,1.2,0.,1.2,,0.0,,0.0
1979-03-02 18:01:43.510 ,2,0,0.,1.2,0.,1.2,0.,1.2,,0.0,,0.0
1979-03-02 18:01:44.710 ,2,0,0.,1.2,0.,1.2,0.,1.2,,0.0,,0.0
1979-03-02 18:01:45.910 ,2,0,0.,1.2,0.,1.2,0.,1.2,,0.0,,0.0
1979-03-02 18:01:47.110 ,2,0,0.,1.2,0.,1.2,0.,1.2,,0.0,,0.0
1979-03-02 18:01:48.310 ,3,0,0.,1.2,0.,1.2,0.,1.2,,0.0,,0.0
1979-03-02 18:01:49.510 ,3,0,0.,1.2,0.,1.2,0.,1.2,,0.0,,0.0
1979-03-02 18:01:50.710 ,3,0,0.,1.2,0.,1.2,0.,1.2,,0.0,,0.0
1979-03-02 18:01:51.910 ,3,0,0.,1.2,0.,1.2,0.,1.2,,0.0,,0.0
1979-03-02 18:01:53.110 ,3,0,0.,1.2,0.,1.2,0.,1.2,,0.0,,0.0
1979-03-02 18:01:54.310 ,3,0,0.,1.2,0.,1.2,0.,1.2,,0.0,,0.0
1979-03-02 18:01:55.510 ,3,0,0.,1.2,0.,1.2,0.,1.2,,0.0,,0.0
1979-03-02 18:01:56.710 ,3,0,0.,1.2,0.,1.2,0.,1.2,,0.0,,0.0
1979-03-02 18:01:57.910 ,3,0,0.,1.2,0.,1.2,0.,1.2,,0.0,,0.0
1979-03-02 18:01:59.110 ,3,0,0.,1.2,0.,1.2,0.,1.2,,0.0,,0.0
1979-03-02 18:02:00.310 ,3,0,0.,1.2,0.,1.2,0.,1.2,,0.0,,0.0
1979-03-02 18:02:01.510 ,3,0,0.,1.2,0.,1.2,0.,1.2,,0.0,,0.0
1979-03-02 18:02:02.710 ,3,0,0.,1.2,0.,1.2,0.,1.2,,0.0,,0.0
1979-03-02 18:02:03.910 ,3,0,0.,1.2,0.,1.2,0.,1.2,,0.0,,0.0
1979-03-02 18:02:05.110 ,3,0,0.,1.2,0.,1.2,0.,1.2,,0.0,,0.0
1979-03-02 18:02:06.310 ,3,0,0.,1.2,0.,1.2,0.,1.2,,0.0,,0.0
1979-03-02 18:02:07.510 ,3,0,0.,1.2,0.,1.2,0.,1.2,,0.0,,0.0
1979-03-02 18:02:08.710 ,3,0,0.,1.2,0.,1.2,0.,1.2,,0.0,,0.0
1979-03-02 18:02:09.910 ,3,0,0.,1.2,0.,1.2,0.,1.2,,0.0,,0.0
1979-03-02 18:02:11.110 ,3,0,0.,1.2,0.,1.2,0.,1.2,,0.0,,0.0
1979-03-02 18:02:12.310 ,4,0,0.,1.2,0.,1.2,0.,1.2,,0.0,,0.0
1979-03-02 18:02:13.510 ,4,0,0.,1.2,0.,1.2,0.,1.2,,0.0,,0.0
1979-03-02 18:02:14.710 ,4,0,0.,1.2,0.,1.2,0.,1.2,,0.0,,0.0
1979-03-02 18:02:15.910 ,4,0,0.,1.2,0.,1.2,0.,1.2,,0.0,,0.0
1979-03-02 18:02:17.110 ,4,0,0.,1.2,0.,1.2,0.,1.2,,0.0,,0.0
1979-03-02 18:02:18.310 ,4,0,0.,1.2,0.,1.2,0.,1.2,,0.0,,0.0
1979-03-02 18:02:19.510 ,4,0,0.,1.2,0.,1.2,0.,1.2,,0.0,,0.0
1979-03-02 18:02:20.710 ,4,0,0.,1.2,0.,1.2,0.,1.2,,0.0,,0.0
1979-03-02 18:02:21.910 ,4,0,0.,1.2,0.,1.2,0.,1.2,,0.0,,0.0
1979-03-02 18:02:23.110 ,4,0,0.,1.2,0.,1.2,0.,1.2,,0.0,,0.0
1979-03-02 18:02:24.310 ,4,0,0.,1.2,0.,1.2,0.,1.2,,0.0,,0.0
1979-03-02 18:02:25.510 ,4,0,0.,1.2,0.,1.2,0.,1.2,,0.0,,0.0
1979-03-02 18:02:26.710 ,4,0,0.,1.2,0.,1.2,0.,1.2,,0.0,,0.0
1979-03-02 18:02:27.910 ,4,0,0.,1.2,0.,1.2,0.,1.2,,0.0,,0.0
1979-03-02 18:02:29.110 ,4,0,0.,1.2,0.,1.2,0.,1.2,,0.0,,0.0
1979-03-02 18:02:30.310 ,4,0,0.,1.2,0.,1.2,0.,1.2,,0.0,,0.0
1979-03-02 18:02:31.510 ,4,0,0.,1.2,0.,1.2,0.,1.2,,0.0,,0.0
1979-03-02 18:02:32.710 ,4,0,0.,1.2,0.,1.2,0.,1.2,,0.0,,0.0
1979-03-02 18:02:33.910 ,4,0,0.,1.2,0.,1.2,0.,1.2,,0.0,,0.0
1979-03-02 18:02:35.110 ,4,0,0.,1.2,0.,1.2,0.,1.2,,0.0,,0.0
1979-03-02 18:02:36.310 ,5,0,0.,1.2,0.,1.2,0.,1.2,,0.0,,0.0
1979-03-02 18:02:37.510 ,5,0,0.,1.2,0.,1.2,0.,1.2,,0.0,,0.0
1979-03-02 18:02:38.710 ,5,0,0.,1.2,0.,1.2,0.,1.2,,0.0,,0.0
1979-03-02 18:02:39.910 ,5,0,0.,1.2,0.,1.2,0.,1.2,,0.0,,0.0
1979-03-02 18:02:41.110 ,5,0,0.,1.2,0.,1.2,0.,1.2,,0.0,,0.0
1979-03-02 18:02:42.310 ,5,0,0.,1.2,0.,1.2,0.,1.2,,0.0,,0.0
1979-03-02 18:02:43.510 ,5,0,0.,1.2,0.,1.2,0.,1.2,,0.0,,0.0
1979-03-02 18:02:44.710 ,5,0,0.,1.2,0.,1.2,0.,1.2,,0.0,,0.0
1979-03-02 18:02:45.910 ,5,0,0.,1.2,0.,1.2,0.,1.2,,0.0,,0.0
1979-03-02 18:02:47.110 ,5,0,0.,1.2,0.,1.2,0.,1.2,,0.0,,0.0
1979-03-02 18:02:48.310 ,5,0,0.,1.2,0.,1.2,0.,1.2,,0.0,,0.0
1979-03-02 18:02:49.510 ,5,0,0.,1.2,0.,1.2,0.,1.2,,0.0,,0.0
1979-03-02 18:02:50.710 ,5,0,0.,1.2,0.,1.2,0.,1.2,,0.0,,0.0
1979-03-02 18:02:51.910 ,5,0,0.,1.2,0.,1.2,0.,1.2,,0.0,,0.0
1979-03-02 18:02:53.110 ,5,0,0.,1.2,0.,1.2,0.,1.2,,0.0,,0.0
1979-03-02 18:02:54.310 ,5,0,0.,1.2,0.,1.2,0.,1.2,,0.0,,0.0
1979-03-02 18:02:55.510 ,5,0,0.,1.2,0.,1.2,0.,1.2,,0.0,,0.0
1979-03-02 18:02:56.710 ,5,0,0.,1.2,0.,1.2,0.,1.2,,0.0,,0.0
1979-03-02 18:02:57.910 ,5,0,0.,1.2,0.,1.2,0.,1.2,,0.0,,0.0
1979-03-02 18:02:59.110 ,5,0,0.,1.2,0.,1.2,0.,1.2,,0.0,,0.0
1979-03-02 18:03:00.310 ,6,0,0.,1.2,0.,1.2,0.,1.2,,0.0,,0.0
1979-03-02 18:03:01.510 ,6,0,0.,1.2,0.,1.2,0.,1.2,,0.0,,0.0
1979-03-02 18:03:02.710 ,6,0,0.,1.2,0.,1.2,0.,1.2,,0.0,,0.0
1979-03-02 18:03:03.910 ,6,0,0.,1.2,0.,1.2,0.,1.2,,0.0,,0.0
1979-03-02 18:03:05.110 ,6,0,0.,1.2,0.,1.2,0.,1.2,,0.0,,0.0
1979-03-02 18:03:06.310 ,6,0,0.,1.2,0.,1.2,0.,1.2,,0.0,,0.0
1979-03-02 18:03:07.510 ,6,0,0.,1.2,0.,1.2,0.,1.2,,0.0,,0.0
1979-03-02 18:03:08.710 ,6,0,0.,1.2,0.,1.2,0.,1.2,,0.0,,0.0
1979-03-02 18:03:09.910 ,6,0,0.,1.2,0.,1.2,0.,1.2,,0.0,,0.0
1979-03-02 18:03:11.110 ,6,0,0.,1.2,0.,1.2,0.,1.2,,0.0,,0.0
1979-03-02 18:03:12.310 ,6,0,0.,1.2,0.,1.2,0.,1.2,,0.0,,0.0
1979-03-02 18:03:13.510 ,6,0,0.,1.2,0.,1.2,0.,1.2,,0.0,,0.0
1979-03-02 18:03:14.710 ,6,0,0.,1.2,0.,1.2,0.,1.2,,0.0,,0.0
1979-03-02 18:03:15.910 ,6,0,0.,1.2,0.,1.2,0.,1.2,,0.0,,0.0
1979-03-02 18:03:17.110 ,6,0,0.,1.2,0.,1.2,0.,1.2,,0.0,,0.0
1979-03-02 18:03:18.310 ,6,0,0.,1.2,0.,1.2,0.,1.2,,0.0,,0.0
1979-03-02 18:03:19.510 ,6,0,0.,1.2,0.,1.2,0.,1.2,,0.0,,0.0
1979-03-02 18:03:20.710 ,6,0,0.,1.2,0.,1.2,0.,1.2,,0.0,,0.0
1979-03-02 18:03:21.910 ,6,0,0.,1.2,0.,1.2,0.,1.2,,0.0,,0.0
1979-03-02 18:03:23.110 ,6,0,0.,1.2,0.,1.2,0.,1.2,,0.0,,0.0
1979-03-02 18:03:24.310 ,7,0,0.,1.2,0.,1.2,0.,1.2,,0.0,,0.0
1979-03-02 18:03:25.510 ,7,0,0.,1.2,0.,1.2,0.,1.2,,0.0,,0.0
1979-03-02 18:03:26.710 ,7,0,0.,1.2,0.,1.2,0.,1.2,,0.0,,0.0
1979-03-02 18:03:27.910 ,7,0,0.,1.2,0.,1.2,0.,1.2,,0.0,,0.0
1979-03-02 18:03:29.110 ,7,0,0.,1.2,0.,1.2,0.,1.2,,0.0,,0.0
1979-03-02 18:03:30.310 ,7,0,0.,1.2,0.,1.2,0.,1.2,,0.0,,0.0
1979-03-02 18:03:31.510 ,7,0,0.,1.2,0.,1.2,0.,1.2,,0.0,,0.0
1979-03-02 18:03:32.710 ,7,0,0.,1.2,0.,1.2,0.,1.2,,0.0,,0.0
1979-03-02 18:03:33.910 ,7,0,0.,1.2,0.,1.2,0.,1.2,,0.0,,0.0
1979-03-02 18:03:35.110 ,7,0,0.,1.2,0.,1.2,0.,1.2,,0.0,,0.0
1979-03-02 18:03:36.310 ,7,0,0.,1.2,0.,1.2,0.,1.2,,0.0,,0.0
1979-03-02 18:03:37.510 ,7,0,0.,1.2,0.,1.2,0.,1.2,,0.0,,0.0
1979-03-02 18:03:38.710 ,7,0,0.,1.2,0.,1.2,0.,1.2,,0.0,,0.0
1979-03-02 18:03:39.910 ,7,0,0.,1.2,0.,1.2,0.,1.2,,0.0,,0.0
1979-03-02 18:03:41.110 ,7,0,0.,1.2,0.,1.2,0.,1.2,,0.0,,0.0
1979-03-02 18:03:42.310 ,7,0,0.,1.2,0.,1.2,0.,1.2,,0.0,,0.0
1979-03-02 18:03:43.510 ,7,0,0.,1.2,0.,1.2,0.,1.2,,0.0,,0.0
1979-03-02 18:03:44.710 ,7,0,0.,1.2,0.,1.2,0.,1.2,,0.0,,0.0
1979-03-02 18:03:45.910 ,7,0,0.,1.2,0.,1.2,0.,1.2,,0.0,,0.0
1979-03-02 18:03:47.110 ,7,0,0.,1.2,0.,1.2,0.,1.2,,0.0,,0.0
1979-03-02 18:03:48.310 ,7,0,0.,1.2,0.,1.2,0.,1.2,,0.0,,0.0
1979-03-02 18:03:49.510 ,7,0,0.,1.2,0.,1.2,0.,1.2,,0.0,,0.0
1979-03-02 18:03:50.710 ,7,0,0.,1.2,0.,1.2,0.,1.2,,0.0,,0.0
1979-03-02 18:03:51.910 ,7,0,0.,1.2,0.,1.2,0.,1.2,,0.0,,0.0
1979-03-02 18:03:53.110 ,7,0,0.,1.2,0.,1.2,0.,1.2,,0.0,,0.0
1979-03-02 18:03:54.310 ,7,0,0.,1.2,0.,1.2,0.,1.2,,0.0,,0.0
1979-03-02 18:03:55.510 ,7,0,0.,1.2,0.,1.2,0.,1.2,,0.0,,0.0
1979-03-02 18:03:56.710 ,7,0,0.,1.2,0.,1.2,0.,1.2,,0.0,,0.0
1979-03-02 18:03:57.910 ,7,0,0.,1.2,0.,1.2,0.,1.2,,0.0,,0.0
1979-03-02 18:03:59.110 ,7,0,0.,1.2,0.,1.2,0.,1.2,,0.0,,0.0
1979-03-02 18:04:00.310 ,7,0,0.,1.2,0.,1.2,0.,1.2,,0.0,,0.0
1979-03-02 18:04:01.510 ,7,0,0.,1.2,0.,1.2,0.,1.2,,0.0,,0.0
1979-03-02 18:04:02.710 ,7,0,0.,1.2,0.,1.2,0.,1.2,,0.0,,0.0
1979-03-02 18:04:03.910 ,7,0,0.,1.2,0.,1.2,0.,1.2,,0.0,,0.0
1979-03-02 18:04:05.110 ,7,0,0.,1.2,0.,1.2,0.,1.2,,0.0,,0.0
1979-03-02 18:04:06.310 ,7,0,0.,1.2,0.,1.2,0.,1.2,,0.0,,0.0
1979-03-02 18:04:07.510 ,7,0,0.,1.2,0.,1.2,0.,1.2,,0.0,,0.0
1979-03-02 18:04:08.710 ,7,0,0.,1.2,0.,1.2,0.,1.2,,0.0,,0.0
1979-03-02 18:04:09.910 ,7,0,0.,1.2,0.,1.2,0.,1.2,,0.0,,0.0
1979-03-02 18:04:11.110 ,7,0,0.,1.2,0.,1.2,0.,1.2,,0.0,,0.0
1979-03-02 18:04:12.310 ,6,0,0.,1.2,0.,1.2,0.,1.2,,0.0,,0.0
1979-03-02 18:04:13.510 ,6,0,0.,1.2,0.,1.2,0.,1.2,,0.0,,0.0
1979-03-02 18:04:14.710 ,6,0,0.,1.2,0.,1.2,0.,1.2,,0.0,,0.0
1979-03-02 18:04:15.910 ,6,0,0.,1.2,0.,1.2,0.,1.2,,0.0,,0.0
1979-03-02 18:04:17.110 ,6,0,0.,1.2,0.,1.2,0.,1.2,,0.0,,0.0
1979-03-02 18:04:18.310 ,6,0,0.,1.2,0.,1.2,0.,1.2,,0.0,,0.0
1979-03-02 18:04:19.510 ,6,0,0.,1.2,0.,1.2,0.,1.2,,0.0,,0.0
1979-03-02 18:04:20.710 ,6,0,0.,1.2,0.,1.2,0.,1.2,,0.0,,0.0
1979-03-02 18:04:21.910 ,6,0,0.,1.2,0.,1.2,0.,1.2,,0.0,,0.0
1979-03-02 18:04:23.110 ,6,0,0.,1.2,0.,1.2,0.,1.2,,0.0,,0.0
1979-03-02 18:04:24.310 ,6,0,0.,1.2,0.,1.2,0.,1.2,,0.0,,0.0
1979-03-02 18:04:25.510 ,6,0,0.,1.2,0.,1.2,0.,1.2,,0.0,,0.0
1979-03-02 18:04:26.710 ,6,0,0.,1.2,0.,1.2,0.,1.2,,0.0,,0.0
1979-03-02 18:04:27.910 ,6,0,0.,1.2,0.,1.2,0.,1.2,,0.0,,0.0
1979-03-02 18:04:29.110 ,6,0,0.,1.2,0.,1.2,0.,1.2,,0.0,,0.0
1979-03-02 18:04:30.310 ,6,0,0.,1.2,0.,1.2,0.,1.2,,0.0,,0.0
1979-03-02 18:04:31.510 ,6,0,0.,1.2,0.,1.2,0.,1.2,,0.0,,0.0
1979-03-02 18:04:32.710 ,6,0,0.,1.2,0.,1.2,0.,1.2,,0.0,,0.0
1979-03-02 18:04:33.910 ,6,0,0.,1.2,0.,1.2,0.,1.2,,0.0,,0.0
1979-03-02 18:04:35.110 ,6,0,0.,1.2,0.,1.2,0.,1.2,,0.0,,0.0
1979-03-02 18:04:36.310 ,5,0,0.,1.2,0.,1.2,0.,1.2,,0.0,,0.0
1979-03-02 18:04:37.510 ,5,0,0.,1.2,0.,1.2,0.,1.2,,0.0,,0.0
1979-03-02 18:04:38.710 ,5,0,0.,1.2,0.,1.2,0.,1.2,,0.0,,0.0
1979-03-02 18:04:39.910 ,5,0,0.,1.2,0.,1.2,0.,1.2,,0.0,,0.0
1979-03-02 18:04:41.110 ,5,0,0.,1.2,0.,1.2,0.,1.2,,0.0,,0.0
1979-03-02 18:04:42.310 ,5,0,0.,1.2,0.,1.2,0.,1.2,,0.0,,0.0
1979-03-02 18:04:43.510 ,5,0,0.,1.2,0.,1.2,0.,1.2,,0.0,,0.0
1979-03-02 18:04:44.710 ,5,0,0.,1.2,0.,1.2,0.,1.2,,0.0,,0.0
1979-03-02 18:04:45.910 ,5,0,0.,1.2,0.,1.2,0.,1.2,,0.0,,0.0
1979-03-02 18:04:47.110 ,5,0,0.,1.2,0.,1.2,0.,1.2,,0.0,,0.0
1979-03-02 18:04:48.310 ,5,0,0.,1.2,0.,1.2,0.,1.2,,0.0,,0.0
1979-03-02 18:04:49.510 ,5,0,0.,1.2,0.,1.2,0.,1.2,,0.0,,0.0
1979-03-02 18:04:50.710 ,5,0,0.,1.2,0.,1.2,0.,1.2,,0.0,,0.0
1979-03-02 18:04:51.910 ,5,0,0.,1.2,0.,1.2,0.,1.2,,0.0,,0.0
1979-03-02 18:04:53.110 ,5,0,0.,1.2,0.,1.2,0.,1.2,,0.0,,0.0
1979-03-02 18:04:54.310 ,5,0,0.,1.2,0.,1.2,0.,1.2,,0.0,,0.0
1979-03-02 18:04:55.510 ,5,0,0.,1.2,0.,1.2,0.,1.2,,0.0,,0.0
1979-03-02 18:04:56.710 ,5,0,0.,1.2,0.,1.2,0.,1.2,,0.0,,0.0
1979-03-02 18:04:57.910 ,5,0,0.,1.2,0.,1.2,0.,1.2,,0.0,,0.0
1979-03-02 18:04:59.110 ,5,0,0.,1.2,0.,1.2,0.,1.2,,0.0,,0.0
1979-03-02 18:05:00.310 ,4,0,0.,1.2,0.,1.2,0.,1.2,,0.0,,0.0
1979-03-02 18:05:01.510 ,4,0,0.,1.2,0.,1.2,0.,1.2,,0.0,,0.0
1979-03-02 18:05:02.710 ,4,0,0.,1.2,0.,1.2,0.,1.2,,0.0,,0.0
1979-03-02 18:05:03.910 ,4,0,0.,1.2,0.,1.2,0.,1.2,,0.0,,0.0
1979-03-02 18:05:05.110 ,4,0,0.,1.2,0.,1.2,0.,1.2,,0.0,,0.0
1979-03-02 18:05:06.310 ,4,0,0.,1.2,0.,1.2,0.,1.2,,0.0,,0.0
1979-03-02 18:05:07.510 ,4,0,0.,1.2,0.,1.2,0.,1.2,,0.0,,0.0
1979-03-02 18:05:08.710 ,4,0,0.,1.2,0.,1.2,0.,1.2,,0.0,,0.0
1979-03-02 18:05:09.910 ,4,0,0.,1.2,0.,1.2,0.,1.2,,0.0,,0.0
1979-03-02 18:05:11.110 ,4,0,0.,1.2,0.,1.2,0.,1.2,,0.0,,0.0
1979-03-02 18:05:12.310 ,4,0,0.,1.2,0.,1.2,0.,1.2,,0.0,,0.0
1979-03-02 18:05:13.510 ,4,0,0.,1.2,0.,1.2,0.,1.2,,0.0,,0.0
1979-03-02 18:05:14.710 ,4,0,0.,1.2,0.,1.2,0.,1.2,,0.0,,0.0
1979-03-02 18:05:15.910 ,4,0,0.,1.2,0.,1.2,0.,1.2,,0.0,,0.0
1979-03-02 18:05:17.110 ,4,0,0.,1.2,0.,1.2,0.,1.2,,0.0,,0.0
1979-03-02 18:05:18.310 ,4,0,0.,1.2,0.,1.2,0.,1.2,,0.0,,0.0
1979-03-02 18:05:19.510 ,4,0,0.,1.2,0.,1.2,0.,1.2,,0.0,,0.0
1979-03-02 18:05:20.710 ,4,0,0.,1.2,0.,1.2,0.,1.2,,0.0,,0.0
1979-03-02 18:05:21.910 ,4,0,0.,1.2,0.,1.2,0.,1.2,,0.0,,0.0
1979-03-02 18:05:23.110 ,4,0,0.,1.2,0.,1.2,0.,1.2,,0.0,,0.0
1979-03-02 18:05:24.310 ,3,0,0.,1.2,0.,1.2,0.,1.2,,0.0,,0.0
1979-03-02 18:05:25.510 ,3,0,0.,1.2,0.,1.2,0.,1.2,,0.0,,0.0
1979-03-02 18:05:26.710 ,3,0,0.,1.2,0.,1.2,0.,1.2,,0.0,,0.0
1979-03-02 18:05:27.910 ,3,0,0.,1.2,0.,1.2,0.,1.2,,0.0,,0.0
1979-03-02 18:05:29.110 ,3,0,0.,1.2,0.,1.2,0.,1.2,,0.0,,0.0
1979-03-02 18:05:30.310 ,3,0,0.,1.2,0.,1.2,0.,1.2,,0.0,,0.0
1979-03-02 18:05:31.510 ,3,0,0.,1.2,0.,1.2,0.,1.2,,0.0,,0.0
1979-03-02 18:05:32.710 ,3,0,0.,1.2,0.,1.2,0.,1.2,,0.0,,0.0
1979-03-02 18:05:33.910 ,3,0,0.,1.2,0.,1.2,0.,1.2,,0.0,,0.0
1979-03-02 18:05:35.110 ,3,0,0.,1.2,0.,1.2,0.,1.2,,0.0,,0.0
1979-03-02 18:05:36.310 ,3,0,0.,1.2,0.,1.2,0.,1.2,,0.0,,0.0
1979-03-02 18:05:37.510 ,3,0,0.,1.2,0.,1.2,0.,1.2,,0.0,,0.0
1979-03-02 18:05:38.710 ,3,0,0.,1.2,0.,1.2,0.,1.2,,0.0,,0.0
1979-03-02 18:05:39.910 ,3,0,0.,1.2,0.,1.2,0.,1.2,,0.0,,0.0
1979-03-02 18:05:41.110 ,3,0,0.,1.2,0.,1.2,0.,1.2,,0.0,,0.0
1979-03-02 18:05:42.310 ,3,0,0.,1.2,0.,1.2,0.,1.2,,0.0,,0.0
1979-03-02 18:05:43.510 ,3,0,0.,1.2,0.,1.2,0.,1.2,,0.0,,0.0
1979-03-02 18:05:44.710 ,3,0,0.,1.2,0.,1.2,0.,1.2,,0.0,,0.0
1979-03-02 18:05:45.910 ,3,0,0.,1.2,0.,1.2,0.,1.2,,0.0,,0.0
1979-03-02 18:05:47.110 ,3,0,0.,1.2,0.,1.2,0.,1.2,,0.0,,0.0
1979-03-02 18:05:48.310 ,2,0,0.,1.2,0.,1.2,0.,1.2,,0.0,,0.0
1979-03-02 18:05:49.510 ,2,0,0.,1.2,0.,1.2,0.,1.2,,0.0,,0.0
1979-03-02 18:05:50.710 ,2,0,0.,1.2,0.,1.2,0.,1.2,,0.0,,0.0
1979-03-02 18:05:51.910 ,2,0,0.,1.2,0.,1.2,0.,1.2,,0.0,,0.0
1979-03-02 18:05:53.110 ,2,0,0.,1.2,0.,1.2,0.,1.2,,0.0,,0.0
1979-03-02 18:05:54.310 ,2,0,0.,1.2,0.,1.2,0.,1.2,,0.0,,0.0
1979-03-02 18:05:55.510 ,2,0,0.,1.2,0.,1.2,0.,1.2,,0.0,,0.0
1979-03-02 18:05:56.710 ,2,0,0.,1.2,0.,1.2,0.,1.2,,0.0,,0.0
1979-03-02 18:05:57.910 ,2,0,0.,1.2,0.,1.2,0.,1.2,,0.0,,0.0
1979-03-02 18:05:59.110 ,2,0,0.,1.2,0.,1.2,0.,1.2,,0.0,,0.0
1979-03-02 18:06:00.310 ,2,0,0.,1.2,0.,1.2,0.,1.2,,0.0,,0.0
1979-03-02 18:06:01.510 ,2,0,0.,1.2,0.,1.2,0.,1.2,,0.0,,0.0
1979-03-02 18:06:02.710 ,2,0,0.,1.2,0.,1.2,0.,1.2,,0.0,,0.0
1979-03-02 18:06:03.910 ,2,0,0.,1.2,0.,1.2,0.,1.2,,0.0,,0.0
1979-03-02 18:06:05.110 ,2,0,0.,1.2,0.,1.2,0.,1.2,,0.0,,0.0
1979-03-02 18:06:06.310 ,2,0,0.,1.2,0.,1.2,0.,1.2,,0.0,,0.0
1979-03-02 18:06:07.510 ,2,0,0.,1.2,0.,1.2,0.,1.2,,0.0,,0.0
1979-03-02 18:06:08.710 ,2,0,0.,1.2,0.,1.2,0.,1.2,,0.0,,0.0
1979-03-02 18:06:09.910 ,2,0,0.,1.2,0.,1.2,0.,1.2,,0.0,,0.0
1979-03-02 18:06:11.110 ,2,0,0.,1.2,0.,1.2,0.,1.2,,0.0,,0.0
1979-03-02 18:06:12.310 ,1,0,0.,1.2,0.,1.2,0.,1.2,,0.0,,0.0
1979-03-02 18:06:13.510 ,1,0,0.,1.2,0.,1.2,0.,1.2,,0.0,,0.0
1979-03-02 18:06:14.710 ,1,0,0.,1.2,0.,1.2,0.,1.2,,0.0,,0.0
1979-03-02 18:06:15.910 ,1,0,0.,1.2,0.,1.2,0.,1.2,,0.0,,0.0
1979-03-02 18:06:17.110 ,1,0,0.,1.2,0.,1.2,0.,1.2,,0.0,,0.0
1979-03-02 18:06:18.310 ,1,0,0.,1.2,0.,1.2,0.,1.2,,0.0,,0.0
1979-03-02 18:06:19.510 ,1,0,0.,1.2,0.,1.2,0.,1.2,,0.0,,0.0
1979-03-02 18:06:20.710 ,1,0,0.,1.2,0.,1.2,0.,1.2,,0.0,,0.0
1979-03-02 18:06:21.910 ,1,0,0.,1.2,0.,1.2,0.,1.2,,0.0,,0.0
1979-03-02 18:06:23.110 ,1,0,0.,1.2,0.,1.2,0.,1.2,,0.0,,0.0
1979-03-02 18:06:24.310 ,1,0,0.,1.2,0.,1.2,0.,1.2,,0.0,,0.0
1979-03-02 18:06:25.510 ,1,0,0.,1.2,0.,1.2,0.,1.2,,0.0,,0.0
1979-03-02 18:06:26.710 ,1,0,0.,1.2,0.,1.2,0.,1.2,,0.0,,0.0
1979-03-02 18:06:27.910 ,1,0,0.,1.2,0.,1.2,0.,1.2,,0.0,,0.0
1979-03-02 18:06:29.110 ,1,0,0.,1.2,0.,1.2,0.,1.2,,0.0,,0.0
1979-03-02 18:06:30.310 ,1,0,0.,1.2,0.,1.2,0.,1.2,,0.0,,0.0
1979-03-02 18:06:31.510 ,1,0,0.,1.2,0.,1.2,0.,1.2,,0.0,,0.0
1979-03-02 18:06:32.710 ,1,0,0.,1.2,0.,1.2,0.,1.2,,0.0,,0.0
1979-03-02 18:06:33.910 ,1,0,0.,1.2,0.,1.2,0.,1.2,,0.0,,0.0
1979-03-02 18:06:35.110 ,1,0,0.,1.2,0.,1.2,0.,1.2,,0.0,,0.0
1979-03-02 18:06:36.310 ,0,0,0.,1.2,0.,1.2,0.,1.2,,0.0,,0.0
1979-03-02 18:06:37.510 ,0,0,0.,1.2,0.,1.2,0.,1.2,,0.0,,0.0
1979-03-02 18:06:38.710 ,0,0,0.,1.2,0.,1.2,0.,1.2,,0.0,,0.0
1979-03-02 18:06:39.910 ,0,0,0.,1.2,0.,1.2,0.,1.2,,0.0,,0.0
1979-03-02 18:06:41.110 ,0,0,0.,1.2,0.,1.2,0.,1.2,,0.0,,0.0
1979-03-02 18:06:42.310 ,0,0,0.,1.2,0.,1.2,0.,1.2,,0.0,,0.0
1979-03-02 18:06:43.510 ,0,0,0.,1.2,0.,1.2,0.,1.2,,0.0,,0.0
1979-03-02 18:06:44.710 ,0,0,0.,1.2,0.,1.2,0.,1.2,,0.0,,0.0
1979-03-02 18:06:45.910 ,0,0,0.,1.2,0.,1.2,0.,1.2,,0.0,,0.0
1979-03-02 18:06:47.110 ,0,0,0.,1.2,0.,1.2,0.,1.2,,0.0,,0.0
1979-03-02 18:06:48.310 ,0,0,0.,1.2,0.,1.2,0.,1.2,,0.0,,0.0
1979-03-02 18:06:49.510 ,0,0,0.,1.2,0.,1.2,0.,1.2,,0.0,,0.0
1979-03-02 18:06:50.710 ,0,0,0.,1.2,0.,1.2,0.,1.2,,0.0,,0.0
1979-03-02 18:06:51.910 ,0,0,0.,1.2,0.,1.2,0.,1.2,,0.0,,0.0
1979-03-02 18:06:53.110 ,0,0,0.,1.2,0.,1.2,0.,1.2,,0.0,,0.0
1979-03-02 18:06:54.310 ,0,0,0.,1.2,0.,1.2,0.,1.2,,0.0,,0.0
1979-03-02 18:06:55.510 ,0,0,0.,1.2,0.,1.2,0.,1.2,,0.0,,0.0
1979-03-02 18:06:56.710 ,0,0,0.,1.2,0.,1.2,0.,1.2,,0.0,,0.0
1979-03-02 18:06:57.910 ,0,0,0.,1.2,0.,1.2,0.,1.2,,0.0,,0.0
1979-03-02 18:06:59.110 ,0,0,0.,1.2,0.,1.2,0.,1.2,,0.0,,0.0
1979-03-02 18:07:00.310 ,0,0,0.,1.2,0.,1.2,0.,1.2,,0.0,,0.0
1979-03-02 18:07:01.510 ,0,0,0.,1.2,0.,1.2,0.,1.2,,0.0,,0.0
1979-03-02 18:07:02.710 ,0,0,0.,1.2,0.,1.2,0.,1.2,,0.0,,0.0
1979-03-02 18:07:03.910 ,0,0,0.,1.2,0.,1.2,0.,1.2,,0.0,,0.0
1979-03-02 18:07:05.110 ,0,0,0.,1.2,0.,1.2,0.,1.2,,0.0,,0.0
1979-03-02 18:07:06.310 ,0,0,0.,1.2,0.,1.2,0.,1.2,,0.0,,0.0
1979-03-02 18:07:07.510 ,0,0,0.,1.2,0.,1.2,0.,1.2,,0.0,,0.0
1979-03-02 18:07:08.710 ,0,0,0.,1.2,0.,1.2,0.,1.2,,0.0,,0.0
1979-03-02 18:07:09.910 ,0,0,0.,1.2,0.,1.2,0.,1.2,,0.0,,0.0
1979-03-02 18:07:11.110 ,0,0,0.,1.2,0.,1.2,0.,1.2,,0.0,,0.0
1979-03-02 18:07:12.310 ,0,0,0.,1.2,0.,1.2,0.,1.2,,0.0,,0.0
1979-03-02 18:07:13.510 ,0,0,0.,1.2,0.,1.2,0.,1.2,,0.0,,0.0
1979-03-02 18:07:14.710 ,0,0,0.,1.2,0.,1.2,0.,1.2,,0.0,,0.0
1979-03-02 18:07:15.910 ,0,0,0.,1.2,0.,1.2,0.,1.2,,0.0,,0.0
1979-03-02 18:07:17.110 ,0,0,0.,1.2,0.,1.2,0.,1.2,,0.0,,0.0
1979-03-02 18:07:18.310 ,0,0,0.,1.2,0.,1.2,0.,1.2,,0.0,,0.0
1979-03-02 18:07:19.510 ,0,0,0.,1.2,0.,1.2,0.,1.2,,0.0,,0.0
1979-03-02 18:07:20.710 ,0,0,0.,1.2,0.,1.2,0.,1.2,,0.0,,0.0
1979-03-02 18:07:21.910 ,0,0,0.,1.2,0.,1.2,0.,1.2,,0.0,,0.0
1979-03-02 18:07:23.110 ,0,0,0.,1.2,0.,1.2,0.,1.2,,0.0,,0.0
1979-03-02 18:07:24.310 ,1,0,0.,1.2,0.,1.2,0.,1.2,,0.0,,0.0
1979-03-02 18:07:25.510 ,1,0,0.,1.2,0.,1.2,0.,1.2,,0.0,,0.0
1979-03-02 18:07:26.710 ,1,0,0.,1.2,0.,1.2,0.,1.2,,0.0,,0.0
1979-03-02 18:07:27.910 ,1,0,0.,1.2,0.,1.2,0.,1.2,,0.0,,0.0
1979-03-02 18:07:29.110 ,1,0,0.,1.2,0.,1.2,0.,1.2,,0.0,,0.0
1979-03-02 18:07:30.310 ,1,0,0.,1.2,0.,1.2,0.,1.2,,0.0,,0.0
1979-03-02 18:07:31.510 ,1,0,0.,1.2,0.,1.2,0.,1.2,,0.0,,0.0
1979-03-02 18:07:32.710 ,1,0,0.,1.2,0.,1.2,0.,1.2,,0.0,,0.0
1979-03-02 18:07:33.910 ,1,0,0.,1.2,0.,1.2,0.,1.2,,0.0,,0.0
1979-03-02 18:07:35.110 ,1,0,0.,1.2,0.,1.2,0.,1.2,,0.0,,0.0
1979-03-02 18:07:36.310 ,1,0,0.,1.2,0.,1.2,0.,1.2,,0.0,,0.0
1979-03-02 18:07:37.510 ,1,0,0.,1.2,0.,1.2,0.,1.2,,0.0,,0.0
1979-03-02 18:07:38.710 ,1,0,0.,1.2,0.,1.2,0.,1.2,,0.0,,0.0
1979-03-02 18:07:39.910 ,1,0,0.,1.2,0.,1.2,0.,1.2,,0.0,,0.0
1979-03-02 18:07:41.110 ,1,0,0.,1.2,0.,1.2,0.,1.2,,0.0,,0.0
1979-03-02 18:07:42.310 ,1,0,0.,1.2,0.,1.2,0.,1.2,,0.0,,0.0
1979-03-02 18:07:43.510 ,1,0,0.,1.2,0.,1.2,0.,1.2,,0.0,,0.0
1979-03-02 18:07:44.710 ,1,0,0.,1.2,0.,1.2,0.,1.2,,0.0,,0.0
1979-03-02 18:07:45.910 ,1,0,0.,1.2,0.,1.2,0.,1.2,,0.0,,0.0
1979-03-02 18:07:47.110 ,1,0,0.,1.2,0.,1.2,0.,1.2,,0.0,,0.0
1979-03-02 18:07:48.310 ,2,0,0.,1.2,0.,1.2,0.,1.2,,0.0,,0.0
1979-03-02 18:07:49.510 ,2,0,0.,1.2,0.,1.2,0.,1.2,,0.0,,0.0
1979-03-02 18:07:50.710 ,2,0,0.,1.2,0.,1.2,0.,1.2,,0.0,,0.0
1979-03-02 18:07:51.910 ,2,0,0.,1.2,0.,1.2,0.,1.2,,0.0,,0.0
1979-03-02 18:07:53.110 ,2,0,0.,1.2,0.,1.2,0.,1.2,,0.0,,0.0
1979-03-02 18:07:54.310 ,2,0,0.,1.2,0.,1.2,0.,1.2,,0.0,,0.0
1979-03-02 18:07:55.510 ,2,0,0.,1.2,0.,1.2,0.,1.2,,0.0,,0.0
1979-03-02 18:07:56.710 ,2,0,0.,1.2,0.,1.2,0.,1.2,,0.0,,0.0
1979-03-02 18:07:57.910 ,2,0,0.,1.2,0.,1.2,0.,1.2,,0.0,,0.0
1979-03-02 18:07:59.110 ,2,0,0.,1.2,0.,1.2,0.,1.2,,0.0,,0.0
1979-03-02 18:08:00.310 ,2,0,0.,1.2,0.,1.2,0.,1.2,,0.0,,0.0
1979-03-02 18:08:01.510 ,2,0,0.,1.2,0.,1.2,0.,1.2,,0.0,,0.0